Highgate, VT

10:25 PM EDT on October 23, 2017 (GMT -0400)
Franklin County State

Weather History for KFSO - April, 2013

Change the Weather History Date:

Tuesday, April 16, 2013

  Actual Average (KPBG) Record (KPBG)
Temperature  
Mean Temperature 54 °F -  
Max Temperature 59 °F 56 °F 84 °F (2012)
Min Temperature 49 °F 35 °F 20 °F (1992)
Degree Days  
Heating Degree Days 10    
Growing Degree Days 4 (Base 50)    
Moisture  
Dew Point 39 °F    
Average Humidity 56    
Maximum Humidity 88    
Minimum Humidity 39    
Precipitation  
Precipitation 0.00 in - - ()
Sea Level Pressure  
Sea Level Pressure 30.03 in    
Wind  
Wind Speed 13 mph (SSW)    
Max Wind Speed 21 mph    
Max Gust Speed 34 mph    
Visibility 10 miles    
Events Rain    
Averages and records for this station are not official NWS values.
T = Trace of Precipitation, MM = Missing Value Source: NWS Daily Summary

Daily Weather History Graph

Daily Weather History Graph

Search for Another Location

Airport or City:

Trip Planner

Search our weather history database for the weather conditions in past years. The results will help you decide how hot, cold, wet, or windy it might be!

Date:

Astronomy

Apr. 16, 2013 Rise Set
Actual Time 6:05 AM EDT 7:39 PM EDT
Civil Twilight 5:34 AM EDT 8:10 PM EDT
Nautical Twilight 4:57 AM EDT 8:47 PM EDT
Astronomical Twilight 4:17 AM EDT 9:27 PM EDT
Moon 10:14 AM EDT (4/16) 12:41 AM EDT (4/16)
Length of Visible Light 14h 35m
Length of Day
13h 33m
Waxing Crescent, 33% of the Moon is Illuminated
Apr 16
Waxing Crescent
Apr 18
First Quarter
Apr 25
Full
May 2
Last Quarter
May 9
New

Hourly Weather History & Observations

Time (EDT) Temp. Dew Point Humidity Pressure Visibility Wind Dir Wind Speed Gust Speed Precip Events Conditions
12:15 AM 55.6 °F 31.1 °F 39% 30.17 in 10.0 mi South 11.5 mph 23.0 mph N/A   Clear
12:35 AM 56.5 °F 31.8 °F 39% 30.16 in 10.0 mi SSE 15.0 mph 20.7 mph N/A   Clear
12:55 AM 56.8 °F 32.0 °F 39% 30.15 in 10.0 mi South 12.7 mph 21.9 mph N/A   Scattered Clouds
1:15 AM 56.8 °F 31.8 °F 39% 30.16 in 10.0 mi South 10.4 mph 23.0 mph N/A   Scattered Clouds
1:35 AM 56.8 °F 31.8 °F 39% 30.16 in 10.0 mi South 15.0 mph 26.5 mph N/A   Mostly Cloudy
1:55 AM 56.1 °F 32.0 °F 40% 30.16 in 10.0 mi South 13.8 mph 25.3 mph N/A   Scattered Clouds
2:15 AM 55.4 °F 31.8 °F 41% 30.16 in 10.0 mi South 13.8 mph 24.2 mph N/A   Scattered Clouds
2:35 AM 54.7 °F 31.5 °F 41% 30.16 in 10.0 mi South 13.8 mph 23.0 mph N/A   Overcast
2:55 AM 54.5 °F 31.6 °F 42% 30.16 in 10.0 mi South 11.5 mph 24.2 mph N/A   Scattered Clouds
3:15 AM 54.5 °F 32.0 °F 42% 30.16 in 10.0 mi South 12.7 mph 20.7 mph N/A   Clear
3:35 AM 54.5 °F 32.0 °F 42% 30.16 in 10.0 mi South 15.0 mph 21.9 mph N/A   Clear
3:55 AM 54.5 °F 32.2 °F 43% 30.15 in 10.0 mi South 17.3 mph 21.9 mph N/A   Clear
4:15 AM 54.5 °F 32.5 °F 43% 30.15 in 10.0 mi South 15.0 mph 24.2 mph N/A   Mostly Cloudy
4:35 AM 54.5 °F 32.7 °F 44% 30.14 in 10.0 mi South 12.7 mph 21.9 mph N/A   Overcast
4:55 AM 54.0 °F 32.5 °F 44% 30.14 in 10.0 mi South 16.1 mph 27.6 mph N/A   Mostly Cloudy
5:15 AM 54.0 °F 32.4 °F 44% 30.13 in 10.0 mi South 13.8 mph 27.6 mph N/A   Scattered Clouds
5:35 AM 54.5 °F 32.2 °F 43% 30.13 in 10.0 mi South 13.8 mph 26.5 mph N/A   Overcast
5:55 AM 54.5 °F 32.0 °F 42% 30.12 in 10.0 mi South 15.0 mph 24.2 mph N/A   Overcast
6:15 AM 54.1 °F 32.2 °F 43% 30.12 in 10.0 mi South 16.1 mph 24.2 mph N/A   Overcast
6:35 AM 53.6 °F 32.0 °F 44% 30.11 in 10.0 mi South 17.3 mph 24.2 mph N/A   Overcast
6:55 AM 54.0 °F 32.0 °F 43% 30.11 in 10.0 mi South 13.8 mph 25.3 mph N/A   Overcast
7:15 AM 54.5 °F 32.0 °F 42% 30.11 in 10.0 mi South 17.3 mph 24.2 mph N/A   Overcast
7:35 AM 54.5 °F 31.8 °F 42% 30.10 in 10.0 mi South 13.8 mph 28.8 mph N/A   Overcast
7:55 AM 54.5 °F 31.8 °F 42% 30.10 in 10.0 mi South 18.4 mph 29.9 mph N/A   Overcast
8:15 AM 54.5 °F 31.3 °F 41% 30.09 in 10.0 mi South 17.3 mph 28.8 mph N/A   Overcast
8:35 AM 54.5 °F 31.6 °F 42% 30.08 in 10.0 mi South 18.4 mph 33.4 mph N/A   Mostly Cloudy
8:55 AM 54.5 °F 32.0 °F 42% 30.07 in 10.0 mi South 16.1 mph 23.0 mph N/A   Mostly Cloudy
9:15 AM 54.5 °F 37.8 °F 53% 30.08 in 10.0 mi South 10.4 mph 26.5 mph N/A Rain Light Rain
9:35 AM 54.5 °F 35.8 °F 49% 30.07 in 10.0 mi South 11.5 mph 21.9 mph N/A   Overcast
9:55 AM 54.5 °F 34.3 °F 47% 30.06 in 10.0 mi South 12.7 mph 27.6 mph N/A   Overcast
10:15 AM 54.5 °F 33.8 °F 46% 30.04 in 10.0 mi South 18.4 mph 28.8 mph N/A   Overcast
10:35 AM 56.7 °F 35.8 °F 46% 30.04 in 10.0 mi South 16.1 mph 27.6 mph N/A   Overcast
10:55 AM 56.8 °F 35.8 °F 45% 30.03 in 10.0 mi South 13.8 mph 28.8 mph N/A   Overcast
11:15 AM 58.3 °F 36.9 °F 45% 30.01 in 10.0 mi South 18.4 mph 28.8 mph N/A   Mostly Cloudy
11:35 AM 57.2 °F 37.0 °F 47% 30.01 in 10.0 mi South 18.4 mph 29.9 mph N/A   Scattered Clouds
11:55 AM 59.4 °F 38.7 °F 46% 29.99 in 10.0 mi South 18.4 mph 28.8 mph N/A   Clear
12:15 PM 57.0 °F 38.1 °F 49% 29.98 in 10.0 mi South 12.7 mph 32.2 mph N/A   Mostly Cloudy
12:35 PM 56.8 °F 39.0 °F 51% 29.97 in 10.0 mi South 15.0 mph 34.5 mph N/A   Overcast
12:55 PM 56.8 °F 40.1 °F 54% 29.96 in 10.0 mi South 19.6 mph 29.9 mph N/A   Overcast
1:15 PM 57.0 °F 40.1 °F 53% 29.96 in 10.0 mi South 20.7 mph 31.1 mph N/A   Overcast
1:35 PM 56.8 °F 41.0 °F 55% 29.94 in 10.0 mi South 18.4 mph 27.6 mph N/A Rain Light Rain
1:55 PM 56.8 °F 41.4 °F 56% 29.95 in 10.0 mi South 16.1 mph 25.3 mph N/A   Overcast
2:15 PM 56.8 °F 41.9 °F 57% 29.95 in 10.0 mi SSW 16.1 mph 25.3 mph N/A   Overcast
2:35 PM 56.8 °F 41.9 °F 57% 29.94 in 10.0 mi South 16.1 mph 27.6 mph N/A   Overcast
2:55 PM 57.6 °F 42.8 °F 58% 29.94 in 10.0 mi SSW 13.8 mph 29.9 mph N/A   Overcast
3:15 PM 57.6 °F 43.5 °F 59% 29.92 in 10.0 mi South 13.8 mph 28.8 mph N/A   Overcast
3:35 PM 59.4 °F 45.5 °F 60% 29.91 in 10.0 mi South 16.1 mph 31.1 mph N/A   Overcast
3:55 PM 59.4 °F 45.9 °F 61% 29.91 in 10.0 mi South 17.3 mph 33.4 mph N/A   Overcast
4:15 PM 59.0 °F 46.6 °F 63% 29.90 in 10.0 mi South 13.8 mph 27.6 mph N/A   Overcast
4:35 PM 59.4 °F 47.3 °F 64% 29.90 in 10.0 mi South 16.1 mph 26.5 mph N/A   Overcast
4:55 PM 58.5 °F 47.1 °F 66% 29.90 in 10.0 mi South 16.1 mph 25.3 mph N/A   Overcast
5:15 PM 59.4 °F 48.2 °F 67% 29.90 in 10.0 mi South 11.5 mph 21.9 mph N/A   Overcast
5:35 PM 59.4 °F 48.2 °F 67% 29.89 in 10.0 mi South 10.4 mph 26.5 mph N/A   Overcast
5:55 PM 59.2 °F 48.6 °F 68% 29.89 in 10.0 mi South 15.0 mph 23.0 mph N/A Rain Light Rain
6:15 PM 56.8 °F 49.3 °F 76% 29.88 in 10.0 mi SSW 11.5 mph 18.4 mph N/A   Overcast
6:35 PM 56.8 °F 49.1 °F 75% 29.88 in 10.0 mi South 11.5 mph 21.9 mph N/A   Overcast
6:55 PM 56.8 °F 50.4 °F 79% 29.89 in 5.0 mi South 11.5 mph 18.4 mph N/A Rain Rain
7:15 PM 56.1 °F 51.4 °F 84% 29.89 in 5.0 mi South 12.7 mph 19.6 mph N/A Rain Heavy Rain
7:35 PM 54.9 °F 50.5 °F 85% 29.91 in 5.0 mi SSW 10.4 mph 16.1 mph N/A Rain Rain
7:55 PM 54.5 °F 50.4 °F 86% 29.92 in 5.0 mi SW 9.2 mph 17.3 mph N/A Rain Rain
8:15 PM 54.5 °F 50.9 °F 88% 29.93 in 5.0 mi SSW 9.2 mph 17.3 mph N/A Rain Rain
8:35 PM 54.5 °F 50.9 °F 88% 29.94 in 10.0 mi SSW 10.4 mph 18.4 mph N/A   Overcast
8:55 PM 54.5 °F 50.9 °F 88% 29.96 in 7.0 mi SW 8.1 mph - N/A   Mostly Cloudy
9:15 PM 54.5 °F 51.1 °F 88% 29.99 in 7.0 mi WSW 4.6 mph - N/A   Scattered Clouds
9:35 PM 51.8 °F 48.2 °F 88% 30.00 in 10.0 mi WSW 4.6 mph - N/A   Clear
9:55 PM 50.7 °F 46.4 °F 85% 30.02 in 10.0 mi WSW 3.5 mph - N/A   Clear
10:15 PM 50.5 °F 45.5 °F 83% 30.03 in 10.0 mi WSW 3.5 mph - N/A   Clear
10:35 PM 50.4 °F 44.6 °F 81% 30.04 in 10.0 mi Calm Calm - N/A   Scattered Clouds
10:55 PM 50.5 °F 44.4 °F 80% 30.05 in 10.0 mi West 3.5 mph - N/A   Mostly Cloudy
11:15 PM 51.8 °F 44.1 °F 75% 30.06 in 10.0 mi WNW 5.8 mph - N/A   Overcast
11:35 PM 51.1 °F 39.6 °F 65% 30.07 in 10.0 mi NW 8.1 mph 18.4 mph N/A   Overcast
11:55 PM 49.3 °F 35.1 °F 58% 30.09 in 10.0 mi WNW 4.6 mph - N/A   Overcast